World > North America > United States > New York > Mongaup Valley  

Mongaup Valley, NY Hourly Weather Updates

Feedback E-mail the Weather

Quick Clicks

Mongaup Valley, NY Weather Maps

°F °C°F °C
Mongaup Valley Weather Map
UTC Time: 7/20/2024, 07:35
Your Time:

Mongaup Valley, NY Regional Weather

Expires:202407200800;;972985
ASUS41 KALY 200710
RWRALY

NEW YORK STATE HOURLY WEATHER ROUNDUP
NATIONAL WEATHER SERVICE ALBANY NY
300 AM EDT SAT JUL 20 2024

NOTE: "FAIR" INDICATES FEW OR NO CLOUDS BELOW 12,000 FEET WITH NO
SIGNIFICANT WEATHER AND/OR NO OBSTRUCTIONS TO VISIBILITY.


NYZ032-033-038>043-046>054-057>066-NYZ062>081-082-084-200800-
EAST

  
CITY           SKY/WX    TMP DP  RH WIND       PRES   REMARKS
ALBANY         PTCLDY    62  56  80 CALM      30.12S                  
GLENS FALLS    CLEAR     57  57 100 CALM      30.11S                  
POUGHKEEPSIE   PTCLDY    61  59  93 CALM      30.10F                  
NEWBURGH       PTCLDY    66  59  77 CALM      30.12F                  
MONTGOMERY     PTCLDY    58  56  93 CALM      30.11F                  
WHITE PLAINS   PTCLDY    66  60  81 W3        30.11F                  
ISLIP          PTCLDY    69  65  86 SW3       30.11F                  
NEW YORK CITY  MOCLDY    73  57  57 S3        30.10F                  
CENTRAL PARK   PTCLDY    72  59  63 CALM      30.14F                  
$$


SKY/WX - Weather  TMP - Temperature  DP - Dew Point  RH - Humidity
WIND - Wind Direction/Speed PRES - Barometric Pressure VSB - Visibility
WCI - Wind Chill Index E13G22 Wind - East Wind 13 mph/Gusts of 22 mph

Trending Headlines

Trending Entertainment Headlines

Mongaup Valley Radar Loop

Use the map search tool if you want to place a location marker on the radar map...

Mongaup Valley Quick Facts

National Two Day Weather Forecast


E-mail the Mongaup Valley Weather Forecast

Voice your opinion or tell us about page issues...